STARLINK-1699

decayed
NORAD ID: 46548 Int'l Des: 2020-070 Owner: SPXS Country: US Constellation: starlink
LEOCIRCULAR
Group

About STARLINK-1699

Description loading...

Altitude History

Altitude vs Time

uPlot chart will show altitude changes over time

Two-Line Element Set

1 46548U 20070S 24293.26022975 .09029687 12197-4 10613-2 0 9997
2 46548 53.0272 211.2498 0003257 198.9802 297.3294 16.35874087224293
Epoch: Oct 19, 2024 • Age: 7959 hours

Current Status

Position data unavailable
Launch Date Oct 6, 2020
Age 4.9 years
Decay Date Oct 19, 2024
Type internet

Technical Details

Classification Payload
Mass 260.00 kg
Dry Mass 248.00 kg
Total Mass 260.00 kg
Length 0.20 m
Diameter 2.80 m
Span 9.00 m
Shape Box + pan
Manufacturer SPXS
Bus Type Starlink
Phase Status Unknown Transfer Status
Owner/State SPXS/US

Large Constellations

Loading constellations...